Radiation Dose at Monitoring Post of Fukushima Daini Nuclear Power Station
Date,Time,MP-1(microSv/h),MP-2(microSv/h),MP-3(microSv/h),MP-4(microSv/h),MP-5(microSv/h),MP-6(microSv/h),MP-7(microSv/h),Wind Direction,Wind Velocity(m/s),Rain
2022/05/28,00:00,0.146,0.136,0.211,0.208,0.213,0.117,0.076,-,CALM,No
2022/05/28,00:10,0.147,0.137,0.212,0.208,0.212,0.117,0.076,-,CALM,Yes
2022/05/28,00:20,0.146,0.136,0.212,0.207,0.214,0.118,0.076,-,CALM,No
2022/05/28,00:30,0.146,0.137,0.211,0.207,0.211,0.117,0.076,south,0.8,No
2022/05/28,00:40,0.146,0.137,0.212,0.208,0.213,0.117,0.076,south-southeast,1.2,No
2022/05/28,00:50,0.146,0.137,0.212,0.207,0.211,0.117,0.075,-,CALM,No
2022/05/28,01:00,0.145,0.137,0.212,0.207,0.212,0.116,0.076,-,CALM,No
2022/05/28,01:10,0.146,0.136,0.211,0.208,0.210,0.117,0.076,northwest,1.0,No
2022/05/28,01:20,0.146,0.138,0.212,0.208,0.213,0.116,0.077,northwest,2.5,No
2022/05/28,01:30,0.147,0.136,0.211,0.207,0.211,0.117,0.076,north-northwest,1.5,No
2022/05/28,01:40,0.146,0.137,0.211,0.208,0.213,0.117,0.075,northwest,1.2,No
2022/05/28,01:50,0.145,0.137,0.212,0.208,0.212,0.117,0.076,north-northeast,1.5,No
2022/05/28,02:00,0.145,0.136,0.210,0.206,0.212,0.117,0.076,north-northwest,2.9,No
2022/05/28,02:10,0.147,0.138,0.212,0.208,0.212,0.116,0.076,north-northwest,1.8,No
2022/05/28,02:20,0.146,0.136,0.211,0.207,0.211,0.117,0.075,north-northwest,2.0,No
2022/05/28,02:30,0.147,0.136,0.211,0.208,0.213,0.117,0.075,north-northwest,1.5,No
2022/05/28,02:40,0.146,0.137,0.213,0.207,0.211,0.117,0.075,north-northwest,2.9,No
2022/05/28,02:50,0.146,0.136,0.211,0.207,0.212,0.116,0.076,north-northwest,2.3,No
2022/05/28,03:00,0.147,0.137,0.212,0.207,0.211,0.116,0.075,north,1.1,No
2022/05/28,03:10,0.145,0.136,0.212,0.207,0.212,0.117,0.076,north-northwest,3.1,No
2022/05/28,03:20,0.147,0.137,0.210,0.208,0.210,0.117,0.075,north-northwest,4.2,No
2022/05/28,03:30,0.145,0.136,0.213,0.207,0.211,0.117,0.075,north,3.7,No
2022/05/28,03:40,0.146,0.136,0.210,0.208,0.211,0.115,0.075,north-northwest,4.1,No
2022/05/28,03:50,0.146,0.137,0.211,0.207,0.212,0.117,0.075,north-northwest,5.3,No
2022/05/28,04:00,0.145,0.135,0.210,0.207,0.211,0.116,0.075,north-northwest,3.8,No
2022/05/28,04:10,0.145,0.136,0.210,0.208,0.211,0.117,0.076,northwest,4.3,No
2022/05/28,04:20,0.145,0.137,0.212,0.206,0.212,0.117,0.076,northwest,5.4,No
2022/05/28,04:30,0.146,0.136,0.211,0.208,0.211,0.117,0.075,north-northwest,3.7,No
2022/05/28,04:40,0.144,0.136,0.210,0.207,0.212,0.117,0.075,north,3.8,No
2022/05/28,04:50,0.146,0.135,0.211,0.208,0.211,0.117,0.076,north-northwest,1.9,No
2022/05/28,05:00,0.146,0.137,0.211,0.207,0.212,0.118,0.075,north-northwest,1.3,No
2022/05/28,05:10,0.146,0.136,0.212,0.207,0.211,0.117,0.075,northwest,1.6,No
2022/05/28,05:20,0.146,0.136,0.211,0.208,0.212,0.116,0.075,northwest,2.7,No
2022/05/28,05:30,0.146,0.137,0.213,0.207,0.211,0.116,0.076,northwest,2.2,No
2022/05/28,05:40,0.145,0.136,0.211,0.209,0.213,0.117,0.076,north-northwest,2.8,No
2022/05/28,05:50,0.146,0.135,0.211,0.206,0.211,0.116,0.075,north-northeast,1.8,No
2022/05/28,06:00,0.146,0.135,0.212,0.207,0.210,0.117,0.075,north-northwest,2.2,No
2022/05/28,06:10,0.147,0.135,0.211,0.206,0.212,0.117,0.075,north-northwest,2.5,No
2022/05/28,06:20,0.146,0.135,0.212,0.207,0.209,0.116,0.075,north-northwest,1.5,No
2022/05/28,06:30,0.145,0.136,0.210,0.206,0.212,0.118,0.075,north-northwest,2.0,No
2022/05/28,06:40,0.146,0.136,0.212,0.207,0.210,0.116,0.076,north-northwest,2.5,No
2022/05/28,06:50,0.145,0.136,0.211,0.206,0.212,0.118,0.075,west-northwest,4.9,No
2022/05/28,07:00,0.146,0.136,0.213,0.208,0.212,0.117,0.075,west-northwest,3.2,No
2022/05/28,07:10,0.145,0.136,0.210,0.206,0.211,0.116,0.075,west-northwest,5.5,No
2022/05/28,07:20,0.147,0.136,0.210,0.207,0.212,0.116,0.075,west-northwest,6.6,No
2022/05/28,07:30,0.146,0.136,0.212,0.207,0.211,0.117,0.075,northwest,5.6,No
2022/05/28,07:40,0.145,0.137,0.212,0.205,0.213,0.117,0.074,west-northwest,7.0,No
2022/05/28,07:50,0.146,0.136,0.210,0.207,0.211,0.116,0.075,west-northwest,9.8,No
2022/05/28,08:00,0.145,0.136,0.209,0.209,0.209,0.116,0.074,west-northwest,9.6,No
2022/05/28,08:10,0.146,0.137,0.208,0.207,0.212,0.116,0.074,west-northwest,10.4,No
2022/05/28,08:20,0.146,0.136,0.210,0.204,0.214,0.117,0.076,west,9.8,No
2022/05/28,08:30,0.145,0.136,0.212,0.207,0.211,0.117,0.075,west-northwest,10.4,No
2022/05/28,08:40,0.147,0.135,0.212,0.208,0.209,0.116,0.076,west,7.1,Yes
2022/05/28,08:50,0.147,0.137,0.213,0.207,0.212,0.117,0.075,west-northwest,9.0,No
2022/05/28,09:00,0.145,0.137,0.211,0.207,0.213,0.118,0.076,west-northwest,8.1,No
2022/05/28,09:10,0.147,0.137,0.211,0.206,0.212,0.118,0.076,west-northwest,7.8,No
2022/05/28,09:20,0.147,0.136,0.211,0.206,0.211,0.117,0.075,west-northwest,6.6,No
2022/05/28,09:30,0.147,0.136,0.210,0.206,0.211,0.117,0.075,west-northwest,7.7,No
2022/05/28,09:40,0.146,0.135,0.212,0.208,0.211,0.118,0.074,west-northwest,7.3,No
2022/05/28,09:50,0.145,0.136,0.211,0.209,0.213,0.118,0.075,west,5.4,No
2022/05/28,10:00,0.146,0.135,0.212,0.209,0.213,0.118,0.075,west-northwest,8.1,No
2022/05/28,10:10,0.147,0.137,0.211,0.208,0.212,0.117,0.075,west-northwest,10.6,No
2022/05/28,10:20,0.147,0.138,0.213,0.207,0.210,0.117,0.076,west-northwest,7.5,No
2022/05/28,10:30,0.146,0.137,0.213,0.209,0.214,0.117,0.077,west-northwest,6.7,No
2022/05/28,10:40,0.147,0.135,0.215,0.210,0.213,0.119,0.076,west-northwest,5.3,No
2022/05/28,10:50,0.149,0.136,0.215,0.209,0.212,0.118,0.075,west-northwest,6.7,No
2022/05/28,11:00,0.148,0.137,0.213,0.208,0.211,0.117,0.075,west-northwest,6.0,No
2022/05/28,11:10,0.147,0.137,0.213,0.211,0.216,0.117,0.075,west-northwest,6.9,No
2022/05/28,11:20,0.146,0.138,0.211,0.211,0.214,0.117,0.076,west,5.8,No
2022/05/28,11:30,0.149,0.138,0.213,0.209,0.212,0.118,0.076,west-southwest,10.3,No
2022/05/28,11:40,0.149,0.137,0.216,0.208,0.212,0.118,0.076,west-southwest,7.3,No
2022/05/28,11:50,0.147,0.137,0.215,0.208,0.210,0.118,0.075,west,5.0,No
2022/05/28,12:00,0.146,0.137,0.213,0.210,0.214,0.118,0.075,west,7.0,No
2022/05/28,12:10,0.148,0.138,0.214,0.210,0.214,0.118,0.077,west,3.9,No
2022/05/28,12:20,0.147,0.138,0.216,0.209,0.212,0.118,0.076,west-northwest,6.2,No
2022/05/28,12:30,0.147,0.136,0.215,0.209,0.211,0.118,0.076,west,8.3,No
2022/05/28,12:40,0.148,0.137,0.214,0.209,0.212,0.119,0.075,west-northwest,7.0,No
2022/05/28,12:50,0.148,0.138,0.213,0.211,0.215,0.118,0.076,west-northwest,7.9,No
2022/05/28,13:00,0.149,0.138,0.213,0.211,0.214,0.118,0.076,west,10.1,No
2022/05/28,13:10,0.148,0.138,0.212,0.209,0.212,0.118,0.076,west,7.5,No
2022/05/28,13:20,0.147,0.137,0.214,0.209,0.212,0.118,0.075,west-northwest,9.6,No
2022/05/28,13:30,0.147,0.136,0.214,0.209,0.210,0.118,0.075,west,8.7,No
2022/05/28,13:40,0.147,0.137,0.215,0.207,0.212,0.118,0.075,west,8.1,No
2022/05/28,13:50,0.149,0.138,0.216,0.210,0.211,0.119,0.075,west,10.4,No
2022/05/28,14:00,0.148,0.137,0.215,0.212,0.212,0.119,0.075,west-northwest,9.2,No
2022/05/28,14:10,0.147,0.138,0.214,0.210,0.215,0.119,0.076,west,8.5,No
2022/05/28,14:20,0.149,0.139,0.217,0.210,0.214,0.119,0.075,west,4.5,No
2022/05/28,14:30,0.148,0.139,0.217,0.212,0.212,0.119,0.076,west-northwest,0.6,No
2022/05/28,14:40,0.146,0.137,0.214,0.212,0.213,0.120,0.076,north,1.5,No
2022/05/28,14:50,0.147,0.136,0.214,0.210,0.214,0.119,0.076,east,3.1,No
2022/05/28,15:00,0.147,0.137,0.214,0.209,0.214,0.119,0.076,east-southeast,1.3,No
2022/05/28,15:10,0.147,0.137,0.214,0.210,0.214,0.119,0.076,west-northwest,5.2,No
2022/05/28,15:20,0.147,0.138,0.215,0.210,0.213,0.119,0.076,northwest,4.1,No
2022/05/28,15:30,0.147,0.137,0.214,0.209,0.214,0.119,0.076,west-northwest,2.6,No
2022/05/28,15:40,0.148,0.137,0.215,0.209,0.213,0.119,0.075,north-northwest,3.6,No
2022/05/28,15:50,0.147,0.137,0.213,0.209,0.213,0.119,0.075,west,4.7,No
2022/05/28,16:00,0.147,0.138,0.215,0.213,0.213,0.118,0.076,northwest,5.2,No
2022/05/28,16:10,0.148,0.139,0.218,0.213,0.212,0.118,0.076,west-northwest,6.2,No
2022/05/28,16:20,0.149,0.138,0.216,0.211,0.212,0.119,0.076,west-northwest,6.6,No
2022/05/28,16:30,0.148,0.138,0.215,0.211,0.212,0.119,0.076,west-northwest,8.4,No
2022/05/28,16:40,0.147,0.138,0.217,0.212,0.212,0.118,0.077,west-northwest,8.7,No
2022/05/28,16:50,0.148,0.139,0.216,0.211,0.212,0.119,0.075,west-northwest,10.6,No
2022/05/28,17:00,0.149,0.138,0.215,0.212,0.216,0.120,0.076,west,12.0,No
2022/05/28,17:10,0.149,0.139,0.218,0.212,0.215,0.118,0.076,west,10.6,No
2022/05/28,17:20,0.149,0.139,0.215,0.212,0.213,0.119,0.075,west-northwest,8.4,No
2022/05/28,17:30,0.149,0.139,0.217,0.213,0.218,0.120,0.076,west-northwest,6.7,No
2022/05/28,17:40,0.149,0.139,0.216,0.211,0.214,0.118,0.077,west-northwest,4.7,No
2022/05/28,17:50,0.149,0.139,0.217,0.213,0.214,0.120,0.076,west-northwest,2.1,No
2022/05/28,18:00,0.150,0.139,0.216,0.213,0.216,0.119,0.076,northwest,1.9,No
2022/05/28,18:10,0.148,0.139,0.216,0.212,0.214,0.119,0.076,north-northwest,0.7,No
2022/05/28,18:20,0.150,0.140,0.218,0.213,0.215,0.120,0.075,north-northeast,1.3,No
2022/05/28,18:30,0.148,0.138,0.217,0.210,0.214,0.119,0.076,north-northeast,1.6,No
2022/05/28,18:40,0.149,0.140,0.218,0.212,0.213,0.119,0.077,northeast,3.7,No
2022/05/28,18:50,0.150,0.139,0.216,0.211,0.215,0.118,0.076,east-northeast,0.8,No
2022/05/28,19:00,0.148,0.138,0.218,0.212,0.214,0.120,0.076,east,1.5,No
2022/05/28,19:10,0.150,0.139,0.217,0.211,0.214,0.119,0.077,east-northeast,1.2,No
2022/05/28,19:20,0.150,0.138,0.217,0.212,0.215,0.119,0.076,south,2.3,No
2022/05/28,19:30,0.149,0.138,0.217,0.212,0.214,0.119,0.076,south-southwest,1.9,No
2022/05/28,19:40,0.149,0.139,0.218,0.212,0.215,0.118,0.076,southwest,1.4,No
2022/05/28,19:50,0.149,0.139,0.216,0.212,0.213,0.118,0.077,west-southwest,0.9,No
2022/05/28,20:00,0.150,0.138,0.219,0.211,0.215,0.119,0.076,west,2.7,No
2022/05/28,20:10,0.149,0.139,0.217,0.212,0.213,0.120,0.076,west-southwest,2.6,No
2022/05/28,20:20,0.149,0.139,0.217,0.211,0.215,0.120,0.076,southwest,1.6,No
2022/05/28,20:30,0.149,0.139,0.216,0.213,0.213,0.119,0.077,southwest,2.9,No
2022/05/28,20:40,0.150,0.138,0.217,0.212,0.215,0.120,0.076,west,2.2,No
2022/05/28,20:50,0.149,0.140,0.216,0.212,0.214,0.119,0.077,west-southwest,3.9,No
2022/05/28,21:00,0.149,0.138,0.217,0.212,0.215,0.120,0.076,west,3.5,Yes
2022/05/28,21:10,0.150,0.136,0.216,0.213,0.214,0.119,0.077,west-northwest,3.9,No
2022/05/28,21:20,0.148,0.138,0.217,0.213,0.214,0.120,0.076,west-northwest,4.8,No
2022/05/28,21:30,0.150,0.138,0.218,0.212,0.215,0.119,0.077,west-northwest,4.5,No
2022/05/28,21:40,0.149,0.138,0.216,0.212,0.213,0.119,0.076,west-northwest,6.3,No
2022/05/28,21:50,0.150,0.139,0.218,0.213,0.216,0.120,0.076,west-northwest,6.6,No
2022/05/28,22:00,0.149,0.139,0.215,0.213,0.215,0.120,0.077,west,8.8,No
2022/05/28,22:10,0.150,0.139,0.217,0.212,0.216,0.120,0.076,west-northwest,7.8,No
2022/05/28,22:20,0.149,0.139,0.217,0.212,0.215,0.120,0.077,west,5.0,No
2022/05/28,22:30,0.149,0.139,0.218,0.212,0.216,0.119,0.076,west,3.6,No
2022/05/28,22:40,0.149,0.139,0.217,0.213,0.214,0.120,0.077,west-southwest,5.3,No
2022/05/28,22:50,0.150,0.138,0.218,0.211,0.216,0.119,0.076,west,4.5,No
2022/05/28,23:00,0.150,0.140,0.217,0.214,0.215,0.119,0.077,west,2.9,No
2022/05/28,23:10,0.150,0.139,0.218,0.213,0.216,0.120,0.077,west-southwest,2.8,No
2022/05/28,23:20,0.150,0.139,0.217,0.213,0.213,0.121,0.076,west-southwest,2.6,No
2022/05/28,23:30,0.150,0.138,0.217,0.211,0.215,0.120,0.076,west,2.8,No
2022/05/28,23:40,0.149,0.139,0.218,0.214,0.214,0.120,0.076,west-southwest,2.9,No
2022/05/28,23:50,0.149,0.138,0.217,0.211,0.217,0.119,0.076,southwest,4.1,No
